"Pseudo-MPEC" for C1FQUM5

Created 2026 Aug 26 0:35:03 UT using Find_Orb

Click here for an explanation of pseudo-MPECs

 
 Astrometry: 
     C1FQUM5*1C2026 08 22.32476122 16 30.796-05 39 49.75   ~8OFo 21.75GVNEOCPV00
     C1FQUM5 1C2026 08 22.32972022 16 28.974-05 39 37.22   ~8OFo 22.18GVNEOCPV00
     C1FQUM5 1C2026 08 22.33467922 16 27.152-05 39 24.73   ~8OFo 21.44GVNEOCPV00
     C1FQUM5 1C2026 08 22.33964722 16 25.259-05 39 12.49   ~8OFo 21.91GVNEOCPV00
     C1FQUM5 0C2026 08 22.39337022 16 05.460-05 36 57.30   ~8OFo 21.7 RVNEOCP291
     C1FQUM5 0C2026 08 22.39817022 16 03.800-05 36 45.10   ~8OFo 22.0 RVNEOCP291

Station data:
(291) LPL/Spacewatch II  (N31.961669 W111.599905)  US/Arizona.  Observers J.
   V. Scotti, R. S. McMillan. 1.8-m f/2.7 reflector + CCD.
(V00) Kitt Peak-Bok  (N31.963125 W111.600190)  US/Arizona. Measurers T.
   Beuden, V. F. Carvajal, D. Fay, J. B. Fazekas, D. C. Fuls, A. R. Gibbs, A.
   D. Grauer, H. Gröller, J. K. Hogan, R. A. Kowalski, S. M. Larson, G. J.
   Leonard, D. Rankin, R. L. Seaman, F. C. Shelly, K. W. Wierzchoś. 2.25-m
   reflector + 4x4K mosaic CCD.

Orbital elements:  C1FQUM5
   Perihelion 2026 May 19.491252 +/- 128 TT = 11:47:24.1 (JD 2461179.991252)
Epoch 2026 Aug 22.0 TT = JDT 2461274.5   Earth MOID: 0.1027      AutoNEOCP
M  69.985388455 +/- 100             (J2000 ecliptic)
n   0.740517571 +/- 0.198           Peri.  244.494027 +/- 58
a   1.209982633 +/- 0.215           Node   327.652911 +/- 2.8
e   0.41319293 +/- 0.149            Incl.   22.121171 +/- 21
P   1.331/486.137d         H 24.38  G  0.15   U 11.7  SR
q 0.710026362 +/- 0.213    Q 1.709938903 +/- 0.493
From 6 observations 2026 Aug. 22 (1.8 hr); mean residual 0".37
Residuals in arcseconds: 
260822 V00  .01+  .01+    260822 V00  .34+  .08+    260822 291  .75-  .06-    
260822 V00  .18+  .06+    260822 V00  .53-  .17-    260822 291  .75+  .07+    

Ephemerides (geocentric):
Date (UTC) HH   RA             Dec           delta  r     elong  mag " sig PA
---- --------  ------------   ------------  ------ ------ -----  --- --------
2026 08 26 01  21 56 36.512   -03 18 45.76  .25846 1.2666 171.0 22.5 6697  61
2026 08 26 02  21 56 24.527   -03 17 21.06  .25876 1.2668 171.0 22.5 6966  61
2026 08 26 03  21 56 12.572   -03 15 56.57  .25906 1.2671 170.9 22.5 7249  61
2026 08 26 04  21 56 00.646   -03 14 32.30  .25936 1.2673 170.8 22.5 7547  61
2026 08 26 05  21 55 48.750   -03 13 08.23  .25967 1.2676 170.8 22.5 7861  61
2026 08 26 06  21 55 36.883   -03 11 44.37  .25997 1.2679 170.7 22.5 8191  61
2026 08 26 07  21 55 25.046   -03 10 20.73  .26027 1.2681 170.7 22.5 8540  61
2026 08 26 08  21 55 13.238   -03 08 57.30  .26057 1.2684 170.6 22.5 8909  61
2026 08 26 09  21 55 01.460   -03 07 34.07  .26088 1.2686 170.5 22.5 9298  61
2026 08 26 10  21 54 49.710   -03 06 11.06  .26118 1.2689 170.5 22.5 9711  61
2026 08 26 11  21 54 37.990   -03 04 48.25  .26148 1.2691 170.4 22.5 169'  61
2026 08 26 12  21 54 26.299   -03 03 25.65  .26179 1.2694 170.4 22.5 177'  61
2026 08 26 13  21 54 14.637   -03 02 03.27  .26209 1.2696 170.3 22.5 185'  61
2026 08 26 14  21 54 03.004   -03 00 41.09  .26240 1.2699 170.2 22.5 194'  61
2026 08 26 15  21 53 51.400   -02 59 19.12  .26270 1.2701 170.2 22.6 203'  61
2026 08 26 16  21 53 39.825   -02 57 57.35  .26301 1.2704 170.1 22.6 213'  61
2026 08 26 17  21 53 28.279   -02 56 35.80  .26331 1.2707 170.0 22.6 223'  61
2026 08 26 18  21 53 16.762   -02 55 14.45  .26362 1.2709 170.0 22.6 234'  61
2026 08 26 19  21 53 05.273   -02 53 53.31  .26393 1.2712 169.9 22.6 246'  61
2026 08 26 20  21 52 53.814   -02 52 32.37  .26424 1.2714 169.9 22.6 259'  61
2026 08 26 21  21 52 42.383   -02 51 11.64  .26454 1.2717 169.8 22.6 272'  61
2026 08 26 22  21 52 30.980   -02 49 51.12  .26485 1.2719 169.7 22.6 287'  61
2026 08 26 23  21 52 19.606   -02 48 30.80  .26516 1.2722 169.7 22.6 302'  61
2026 08 27 00  21 52 08.261   -02 47 10.69  .26547 1.2724 169.6 22.6 319'  61
2026 08 27 01  21 51 56.944   -02 45 50.78  .26578 1.2727 169.5 22.6 336'  61
2026 08 27 02  21 51 45.656   -02 44 31.07  .26609 1.2729 169.5 22.6 355'  62
2026 08 27 03  21 51 34.396   -02 43 11.57  .26640 1.2732 169.4 22.6 375'  62
2026 08 27 04  21 51 23.164   -02 41 52.27  .26671 1.2735 169.3 22.6 397'  62
2026 08 27 05  21 51 11.960   -02 40 33.18  .26702 1.2737 169.3 22.6 419'  62
2026 08 27 06  21 51 00.785   -02 39 14.29  .26733 1.2740 169.2 22.6 443'  63
2026 08 27 07  21 50 49.638   -02 37 55.60  .26764 1.2742 169.1 22.6 469'  63
2026 08 27 08  21 50 38.519   -02 36 37.12  .26796 1.2745 169.1 22.6 496'  63
2026 08 27 09  21 50 27.428   -02 35 18.83  .26827 1.2747 169.0 22.6 524'  64
2026 08 27 10  21 50 16.365   -02 34 00.75  .26858 1.2750 168.9 22.7 553'  64
2026 08 27 11  21 50 05.330   -02 32 42.87  .26890 1.2752 168.9 22.7 584'  65
2026 08 27 12  21 49 54.323   -02 31 25.19  .26921 1.2755 168.8 22.7 615'  66
2026 08 27 13  21 49 43.344   -02 30 07.71  .26952 1.2757 168.7 22.7 648'  66
2026 08 27 14  21 49 32.392   -02 28 50.43  .26984 1.2760 168.7 22.7 681'  67
2026 08 27 15  21 49 21.469   -02 27 33.35  .27015 1.2762 168.6 22.7 714'  67
2026 08 27 16  21 49 10.573   -02 26 16.47  .27047 1.2765 168.5 22.7 747'  68
2026 08 27 17  21 48 59.704   -02 24 59.78  .27079 1.2767 168.5 22.7 780'  69
2026 08 27 18  21 48 48.863   -02 23 43.30  .27110 1.2770 168.4 22.7 812'  70
2026 08 27 19  21 48 38.050   -02 22 27.02  .27142 1.2773 168.3 22.7 843'  70
2026 08 27 20  21 48 27.264   -02 21 10.93  .27174 1.2775 168.3 22.7 874'  71
2026 08 27 21  21 48 16.506   -02 19 55.04  .27205 1.2778 168.2 22.7 903'  72
2026 08 27 22  21 48 05.775   -02 18 39.35  .27237 1.2780 168.1 22.7 930'  72
2026 08 27 23  21 47 55.072   -02 17 23.85  .27269 1.2783 168.1 22.7 957'  73
2026 08 28 00  21 47 44.395   -02 16 08.55  .27301 1.2785 168.0 22.7 982'  73